Regional Weather Roundup
Issued by NWS Grand Forks, ND

Home | Current Version | Previous Version | Text Only | Print | Product List | Glossary Off
Versions: 1 2 3 4 5 6 7 8 9 10 11 12 13 14 15 16 17 18 19 20 21 22 23 24 25 26 27 28 29 30 31 32 33 34 35 36 37 38 39 40 41 42 43 44 45 46 47 48 49 50

000
ASUS43 KFGF 131810
RWRFGF
PRAIRIE TO PINES  WEATHER ROUNDUP
NATIONAL WEATHER SERVICE EASTERN NORTH DAKOTA/GRAND FORKS ND
1200 PM CST WED DEC 13 2017

 **SATELLITE DATA USED TO AUGMENT SKY COVER AT AUTOMATED STATIONS**
 *****  WEATHER ACROSS EASTERN NORTH DAKOTA  *****

CITY           SKY/WX    TMP DP  RH WIND       PRES   REMARKS
GRAND FORKS    CLOUDY    26  24  92 N28G38    29.79S WCI  10
6HR MIN TEMP:  26; 6HR MAX TEMP:  28; 6HR PCP: TRACE;

GRAND FRKS AFB CLOUDY    26  25  95 N18       29.80R WCI  13
GRAND FRKS NWS   N/A     27 N/A N/A N23         N/A  WCI  12
DEVILS LAKE    MIX PCPN  31  29  92 N16       29.84R WCI  20
6HR MIN TEMP:  30; 6HR MAX TEMP:  34; 6HR PCP: TRACE;

FARGO          CLOUDY    28  26  92 N20G26    29.78S WCI  15
WAHPETON ARPT  CLOUDY    30  25  80 N17G25    29.77R WCI  18
$$

 ***** WEATHER ACROSS CENTRAL AND WESTERN NORTH DAKOTA  *****

CITY           SKY/WX    TMP DP  RH WIND       PRES   REMARKS
BISMARCK       CLOUDY    36  26  67 NW23G30   29.94S
6HR MIN TEMP:  34; 6HR MAX TEMP:  37;

MINOT          CLOUDY    36  27  69 NW20G28   29.92S
6HR MIN TEMP:  33; 6HR MAX TEMP:  36;

JAMESTOWN      CLOUDY    32  29  88 N16       29.81S WCI  21
6HR MIN TEMP:  32; 6HR MAX TEMP:  35;

MINOT AFB      CLOUDY    35  27  71 NW23      29.91S WCI  23
GARRISON         N/A     34  26  72 NW22G36   29.93S WCI  22
WILLISTON      FAIR      39  26  59 NW22G31   30.04R
6HR MIN TEMP:  33; 6HR MAX TEMP:  39;

DICKINSON      FAIR      36  25  64 NW21G32   29.97F
6HR MIN TEMP:  31; 6HR MAX TEMP:  36;

HETTINGER      FAIR      39  25  57 NW26G35   30.00S
6HR MIN TEMP:  31; 6HR MAX TEMP:  39;

$$

 *****  OTHER AIRPORT OBSERVATIONS IN OUR AREA  *****

CITY           SKY/WX    TMP DP  RH WIND       PRES   REMARKS
WALHALLA       FAIR      23  23 100 N23G31    29.85R WCI   7
GRAFTON AIRPOR CLOUDY    25  23  93 N25G33    29.83S WCI   9
VALLEY CITY AR FLURRIES  30  30 100 N22G32    29.81S WCI  17
CANDO          MOCLDY    32  32 100 N13G21    29.86R WCI  22
CAVALIER APRT  CLOUDY    23  18  80 N23G33    29.83R WCI   7
GWINNER          N/A     34  27  75 N21G28    29.80F WCI  22
SHEYENNE NWR     N/A     33  25  73 N15       29.95  WCI  23
ROLLA          CLOUDY    30  30 100 NW16G23   29.83S WCI  19
 ***** THE ABOVE OBSERVATIONS ARE NON NWS ARE NOT QUALITY
       CONTROLLED AND MAY MIS-REPORT RAIN FOR SNOW...
$$

  *****  WEATHER ACROSS NORTHERN MINNESOTA  *****

CITY           SKY/WX    TMP DP  RH WIND       PRES   REMARKS
FLAG ISLAND    LGT SNOW  12   9  85 N10       29.77R WCI  -1
WARROAD        LGT SNOW  16  12  86 N9        29.77R WCI   4
ROSEAU         LGT SNOW  18  12  79 N13       29.78R WCI   4
HALLOCK        FLURRIES  21  18  86 N13       29.81R WCI   9
THF RVR FALLS  MIX PCPN  19  17  92 N15       29.76R FOG     WCI   5
6HR MIN TEMP:  19; 6HR MAX TEMP:  22; 6HR PCP: TRACE;

BAUDETTE       LGT SNOW  15  11  83 N9        29.74R FOG     WCI   3
6HR MIN TEMP:  14; 6HR MAX TEMP:  16; 6HR PCP: TRACE;

WASKISH        FLURRIES  16  12  86 NW8       29.72R WCI   5
CROOKSTON      CLOUDY    23  21  93 N20G26    29.79R WCI   8
STEPHEN NDAWN    N/A     21  18  86 N18         N/A  WCI   6
GREENBUSH NDAW   N/A     18  16  93 N12         N/A  WCI   5
$$
  *****  WEATHER ACROSS CENTRAL AND WEST MINNESOTA  *****

CITY           SKY/WX    TMP DP  RH WIND       PRES   REMARKS
FOSSTON        CLOUDY    18  16  93 N16       29.74R FOG     WCI   3
BEMIDJI        LGT SNOW  16  13  87 NW13      29.69R WCI   3
6HR MIN TEMP:  16; 6HR MAX TEMP:  21;

PARK RAPIDS    CLOUDY    19  16  88 N16       29.67R WCI   4
6HR MIN TEMP:  19; 6HR MAX TEMP:  27;

ELBOW LAKE     CLOUDY    26  23  87 N29G38    29.73S WCI  10
6HR MIN TEMP:  26; 6HR MAX TEMP:  32;

WADENA         MIX PCPN  21  19  93 NW14G21   29.67R WCI   8
DETROIT LAKES  CLOUDY    23  21  93 N22G30    29.72R WCI   8
MOORHEAD       CLOUDY    27  23  86 N22G30    29.78S WCI  12
FERGUS FALLS   CLOUDY    25  23  93 N26G35    29.76R WCI   9
MORRIS MN      CLOUDY    28  25  86 N30G41    29.72R WCI  13
STAPLES        CLOUDY    19  18  93 N14G24    29.66R WCI   6
$$
  *****  WEATHER ELSEWHERE ACROSS MINNESOTA  *****

CITY           SKY/WX    TMP DP  RH WIND       PRES   REMARKS
DULUTH         LGT SNOW  21  18  88 NE14G26   29.56R FOG     WCI   8
6HR MIN TEMP:  18; 6HR MAX TEMP:  22; 6HR PCP:  0.05;

INTRNTL FALLS  LGT SNOW  17  10  74 E7        29.71R VSB 3/4 WCI   8
6HR MIN TEMP:  15; 6HR MAX TEMP:  17; 6HR PCP:  0.05;

ELY            LGT SNOW  18  12  79 NE8       29.63R WCI   7
CLOQUET        LGT SNOW  23  18  80 N9        29.57R VSB 1   WCI  13
WHEATON        CLOUDY    30  25  80 NW20G28   29.79R WCI  18
BRAINERD       CLOUDY    21  15  78 N16       29.65R HAZE    WCI   7
6HR MIN TEMP:  20; 6HR MAX TEMP:  22;

HIBBING        LGT SNOW  20  14  77 N10       29.62R WCI   9
6HR MIN TEMP:  16; 6HR MAX TEMP:  20; 6HR PCP:  0.02;

ALEXANDRIA     CLOUDY    25  20  81 N28G36    29.67R WCI   9
6HR MIN TEMP:  25; 6HR MAX TEMP:  34;

SAINT CLOUD    CLOUDY    23  19  85 N13G24    29.62R WCI  11
6HR MIN TEMP:  23; 6HR MAX TEMP:  28; 6HR PCP:  0.04;

MINNEAPOLIS    CLOUDY    25  19  78 N21G33    29.57R WCI  11
6HR MIN TEMP:  25; 6HR MAX TEMP:  30; 6HR PCP:  0.01;

$$

  *****  WEATHER ACROSS SOUTH DAKOTA  *****

CITY           SKY/WX    TMP DP  RH WIND       PRES   REMARKS
SIOUX FALLS    CLOUDY    39  31  72 NW22G37   29.78R
6HR MIN TEMP:  39; 6HR MAX TEMP:  45; 6HR PCP: TRACE;

BROOKINGS      CLOUDY    36  28  73 NW22G32   29.76R
WATERTOWN      CLOUDY    33  29  85 N24G32    29.78R WCI  20
6HR MIN TEMP:  33; 6HR MAX TEMP:  36;

HURON          CLOUDY    39  30  70 NW23G31   29.85R
6HR MIN TEMP:  38; 6HR MAX TEMP:  43;

SISSETON         N/A     34  28  79 N24       29.77R WCI  21
ABERDEEN       CLOUDY    38  29  70 NW25G31   29.85S
6HR MIN TEMP:  37; 6HR MAX TEMP:  38;

MITCHELL       CLOUDY    41  30  65 NW23G33   29.86F
PIERRE         FAIR      44  30  57 NW28G35   29.92F
6HR MIN TEMP:  39; 6HR MAX TEMP:  44;

MOBRIDGE       CLOUDY    40  29  64 NW20G33   29.90R
RAPID CITY     FAIR      44  21  40 NW32G40   30.03F
6HR MIN TEMP:  40; 6HR MAX TEMP:  45;

$$

  *****  SOME WEATHER IN NEARBY STATES *****

CITY           SKY/WX    TMP DP  RH WIND       PRES   REMARKS
GLASGOW MT     FAIR      36  26  67 NW16      30.13S
6HR MIN TEMP:  29; 6HR MAX TEMP:  36;

GREAT FALLS MT CLOUDY    33  17  51 SW10      30.27R WCI  25
6HR MIN TEMP:  23; 6HR MAX TEMP:  33;

CHEYENNE WY    FAIR      44  10  25 N14G22    30.13F
6HR MIN TEMP:  33; 6HR MAX TEMP:  44;

SCOTTSBLUFF NE FAIR      49  15  25 NW24G37   30.11F
6HR MIN TEMP:  33; 6HR MAX TEMP:  49;

OMAHA NE       FAIR      52  29  41 NW25G37   29.75R
6HR MIN TEMP:  47; 6HR MAX TEMP:  52;

DES MOINES IA  CLOUDY    43  34  70 NW25G47   29.61R
6HR MIN TEMP:  39; 6HR MAX TEMP:  49; 6HR PCP:  0.02;

DAVENPORT IA   PTSUNNY   44  29  55 W30G45    29.38S
6HR MIN TEMP:  31; 6HR MAX TEMP:  45;

CHICAGO IL     CLOUDY    35  22  58 SW16      29.31F
6HR MIN TEMP:  25; 6HR MAX TEMP:  35;

EAU CLAIRE WI  CLOUDY    22  16  78 N10       29.47R WCI  11
6HR MIN TEMP:  20; 6HR MAX TEMP:  22; 6HR PCP:  0.02;

LA CROSSE WI   CLOUDY    29  21  72 NW16      29.41R WCI  17
6HR MIN TEMP:  29; 6HR MAX TEMP:  32;

$$

  *****  SOME NATIONAL WEATHER *****

CITY           SKY/WX    TMP DP  RH WIND       PRES   REMARKS
LA GUARDIA NY  FAIR      30   7  37 W23G40    29.54F WCI  17
6HR MIN TEMP:  22; 6HR MAX TEMP:  31;

RALEIGH NC     PTSUNNY   38   4  24 W12       29.92F
6HR MIN TEMP:  23; 6HR MAX TEMP:  39;

ATLANTA GA     FAIR      44  13  28 VRB7      30.00F
6HR MIN TEMP:  28; 6HR MAX TEMP:  44;

NEW ORLEANS LA PTSUNNY   58  34  40 S10       30.15F
6HR MIN TEMP:  35; 6HR MAX TEMP:  59;

OKLAHOMA CITY  FAIR      61  20  20 N14       29.95F
6HR MIN TEMP:  33; 6HR MAX TEMP:  61;

ALBUQUERQUE NM FAIR      45   4  18 NW7       30.20F
6HR MIN TEMP:  23; 6HR MAX TEMP:  45;

SALT LAKE CITY CLOUDY    23  21  92 CALM      30.35F FOG
6HR MIN TEMP:  22; 6HR


USA.gov is the U.S. government's official web portal to all federal, state and local government web resources and services.